Weather History for KNSE - February, 2013

Change the Weather History Date:

Friday, February 8, 2013

  Actual Average Record
Temperature  
Mean Temperature 58 °F -  
Max Temperature 70 °F 61 °F 77 °F (1999)
Min Temperature 46 °F 43 °F 31 °F (2006)
Degree Days  
Heating Degree Days 7    
Growing Degree Days 8 (Base 50)    
Moisture  
Dew Point 50 °F    
Average Humidity 77    
Maximum Humidity 100    
Minimum Humidity 53    
Precipitation  
Precipitation 0.00 in - - ()
Sea Level Pressure  
Sea Level Pressure 30.00 in    
Wind  
Wind Speed 3 mph (NNW)    
Max Wind Speed 15 mph    
Max Gust Speed 18 mph    
Visibility 4 miles    
Events Fog    
Averages and records for this station are not official NWS values.
T = Trace of Precipitation, MM = Missing Value Source: NWS Daily Summary

Daily Weather History Graph

Daily Weather History Graph

Search for Another Location

Airport or City:

Trip Planner

Search our weather history database for the weather conditions in past years. The results will help you decide how hot, cold, wet, or windy it might be!

Date:

Astronomy

Feb. 08, 2013 Rise Set
Actual Time 6:34 AM CST 5:30 PM CST
Civil Twilight 6:09 AM CST 5:55 PM CST
Nautical Twilight 5:41 AM CST 6:23 PM CST
Astronomical Twilight 5:12 AM CST 6:52 PM CST
Moon 4:59 AM CST (2/8) 4:05 PM CST (2/8)
Length of Visible Light 11h 45m
Length of Day
10h 56m
Waning Crescent, 3% of the Moon is Illuminated
Feb 8
Waning Crescent
Feb 10
New
Feb 17
First Quarter
Feb 25
Full
Mar 4
Last Quarter

Hourly Weather History & Observations

Time (CST) Temp. Dew Point Humidity Pressure Visibility Wind Dir Wind Speed Gust Speed Precip Events Conditions
12:09 AM 59.0 °F 51.8 °F 77% 29.95 in 1.5 mi Calm Calm - N/A   Haze
12:28 AM 57.2 °F 51.8 °F 82% 29.95 in 2.5 mi NW 3.5 mph - N/A   Haze
12:39 AM 57.2 °F 51.8 °F 82% 29.96 in 0.8 mi WNW 3.5 mph - N/A   Haze
12:56 AM 57.9 °F 51.1 °F 78% 29.92 in 0.8 mi WNW 3.5 mph - N/A   Haze
1:27 AM 57.2 °F 50.0 °F 77% 29.95 in 1.0 mi NW 3.5 mph - N/A   Haze
1:34 AM 57.2 °F 50.0 °F 77% 29.95 in 0.8 mi NW 4.6 mph - N/A   Haze
1:47 AM 55.4 °F 48.2 °F 77% 29.95 in 1.0 mi NNW 4.6 mph - N/A   Haze
1:56 AM 57.0 °F 51.1 °F 81% 29.91 in 1.5 mi NW 3.5 mph - N/A   Haze
2:19 AM 55.4 °F 50.0 °F 82% 29.95 in 3.0 mi NNW 3.5 mph - N/A   Haze
2:34 AM 55.4 °F 48.2 °F 77% 29.95 in 1.8 mi NW 3.5 mph - N/A   Haze
2:44 AM 53.6 °F 48.2 °F 82% 29.96 in 0.2 mi NW 3.5 mph - N/A   Haze
2:56 AM 54.0 °F 48.0 °F 80% 29.92 in 0.5 mi NNW 3.5 mph - N/A   Haze
3:05 AM 55.4 °F 48.2 °F 77% 29.95 in 1.0 mi North 3.5 mph - N/A   Haze
3:11 AM 55.4 °F 50.0 °F 82% 29.96 in 0.2 mi Calm Calm - N/A   Haze
3:50 AM 51.8 °F 46.4 °F 82% 29.96 in 0.2 mi Calm Calm - N/A   Haze
3:56 AM 53.1 °F 46.9 °F 80% 29.93 in 0.2 mi Calm Calm - N/A   Haze
4:37 AM 53.6 °F 46.4 °F 77% 29.98 in 0.2 mi Calm Calm - N/A   Haze
4:47 AM 53.6 °F 46.4 °F 77% 29.98 in 0.5 mi Calm Calm - N/A   Haze
4:56 AM 53.1 °F 46.9 °F 80% 29.95 in 1.0 mi Calm Calm - N/A   Haze
5:03 AM 53.6 °F 46.4 °F 77% 29.98 in 0.5 mi NNW 3.5 mph - N/A   Haze
5:33 AM 53.6 °F 46.4 °F 77% 30.00 in 0.2 mi Calm Calm - N/A   Haze
5:56 AM 46.9 °F 45.0 °F 93% 29.97 in 0.2 mi NNW 3.5 mph - N/A Fog Fog
6:56 AM 48.0 °F 46.9 °F 96% 29.99 in 0.2 mi Calm Calm - N/A Fog Fog
7:23 AM 50.0 °F 48.2 °F 94% 30.03 in 1.0 mi Calm Calm - N/A   Mostly Cloudy
7:35 AM 51.8 °F 50.0 °F 94% 30.04 in 2.0 mi Calm Calm - N/A   Mostly Cloudy
7:46 AM 51.8 °F 51.8 °F 100% 30.03 in 4.0 mi Calm Calm - N/A   Mostly Cloudy
7:56 AM 53.1 °F 52.0 °F 96% 30.00 in 6.0 mi Calm Calm - N/A   Mostly Cloudy
8:56 AM 59.0 °F 55.0 °F 87% 30.01 in 7.0 mi Variable 3.5 mph - N/A   Mostly Cloudy
9:56 AM 61.0 °F 55.0 °F 81% 30.02 in 8.0 mi South 5.8 mph - N/A   Mostly Cloudy
10:56 AM 66.0 °F 55.9 °F 70% 30.03 in 10.0 mi NW 8.1 mph - N/A   Overcast
11:56 AM 66.9 °F 55.9 °F 68% 30.02 in 10.0 mi NW 8.1 mph - N/A   Mostly Cloudy
12:56 PM 68.0 °F 55.9 °F 65% 30.00 in 10.0 mi NW 8.1 mph - N/A   Mostly Cloudy
1:56 PM 69.1 °F 55.0 °F 61% 30.00 in 10.0 mi NW 11.5 mph 18.4 mph N/A   Mostly Cloudy
2:56 PM 70.0 °F 52.0 °F 53% 29.99 in 10.0 mi NW 5.8 mph - N/A   Scattered Clouds
3:56 PM 70.0 °F 52.0 °F 53% 29.99 in 10.0 mi WNW 6.9 mph - N/A   Scattered Clouds
4:56 PM 70.0 °F 52.0 °F 53% 30.01 in 10.0 mi NNW 6.9 mph - N/A   Scattered Clouds
5:56 PM 66.0 °F 53.1 °F 63% 30.03 in 10.0 mi North 11.5 mph - N/A   Scattered Clouds
6:56 PM 62.1 °F 52.0 °F 70% 30.06 in 10.0 mi North 6.9 mph - N/A   Scattered Clouds
7:56 PM 59.0 °F 52.0 °F 78% 30.09 in 10.0 mi North 15.0 mph - N/A   Clear
8:56 PM 57.0 °F 50.0 °F 77% 30.11 in 10.0 mi North 10.4 mph - N/A   Mostly Cloudy
9:56 PM 61.0 °F 48.9 °F 64% 30.12 in 10.0 mi North 4.6 mph - N/A   Overcast
10:56 PM 60.1 °F 48.0 °F 64% 30.12 in 10.0 mi North 4.6 mph - N/A   Overcast
11:56 PM 59.0 °F 46.9 °F 64% 30.12 in 10.0 mi North 5.8 mph - N/A   Overcast